Location: Newark
(45.9167°N, 5.5000°E)
Time: 14:57:28
(UTC+00:00)

N. Korean satellite - Pass Details

Date: 30 January 2020
Orbit: 456 x 506 km, 97.2° (Epoch: 17 February)

Event Time Altitude Azimuth Distance (km) Brightness Sun altitude
Rises 17:19:39 0° 197° (SSW) 2,461 10.7 -7.3°
Reaches altitude 10° 17:21:59 10° 213° (SSW) 1,595 10.0 -7.7°
Maximum altitude 17:24:42 22° 266° (W) 1,056 9.4 -8.1°
Drops below altitude 10° 17:27:28 10° 319° (NW) 1,617 9.6 -8.6°
Sets 17:29:52 0° 335° (NNW) 2,505 10.3 -9.0°
